DW1973 Weather Reports


Display with metric or nautical units.
time (UTC)temp
F
wind
direction
speed
MPH
gust
MPH
rain 1hr
in
rain 24hr
in
rain mn
in
humidity
%
barometer
mb
20260902214926 93 294 3.0 8.0 0.00 0.00 0.00 59 1013.0
20260902214439 93 204 3.0 10.0 0.00 0.00 0.00 59 1013.0
20260902213947 94 232 4.0 10.0 0.00 0.00 0.00 60 1013.0
20260902213416 94 214 3.0 9.0 0.00 0.00 0.00 59 1013.1
20260902212923 94 234 3.0 8.0 0.00 0.00 0.00 57 1013.3
20260902212432 94 213 4.0 7.0 0.00 0.00 0.00 61 1013.2
20260902211918 94 260 2.0 9.0 0.00 0.00 0.00 60 1013.2
20260902211430 94 215 3.0 8.0 0.00 0.00 0.00 58 1013.2
20260902210919 94 244 3.0 6.0 0.00 0.00 0.00 59 1013.2
20260902210427 94 192 2.0 8.0 0.00 0.00 0.00 61 1013.2
20260902205940 94 197 3.0 7.0 0.00 0.00 0.00 60 1013.2
20260902205426 94 207 3.0 7.0 0.00 0.00 0.00 58 1013.2
20260902204933 94 288 2.0 12.0 0.00 0.00 0.00 57 1013.2
20260902204426 94 209 5.0 12.0 0.00 0.00 0.00 57 1013.3
20260902203933 94 223 3.0 9.0 0.00 0.00 0.00 59 1013.3
20260902203442 94 245 4.0 11.0 0.00 0.00 0.00 60 1013.2
20260902202928 94 188 4.0 7.0 0.00 0.00 0.00 61 1013.2
20260902202437 94 262 4.0 9.0 0.00 0.00 0.00 60 1013.2
20260902201945 94 286 4.0 9.0 0.00 0.00 0.00 58 1013.3
20260902201434 94 268 4.0 9.0 0.00 0.00 0.00 58 1013.3
20260902200919 94 222 2.0 9.0 0.00 0.00 0.00 59 1013.3
20260902200426 93 191 4.0 9.0 0.00 0.00 0.00 59 1013.5
20260902195917 93 242 4.0 8.0 0.00 0.00 0.00 59 1013.5
20260902195424 93 214 4.0 8.0 0.00 0.00 0.00 60 1013.5
20260902194932 93 247 3.0 7.0 0.00 0.00 0.00 61 1013.6
20260902194423 93 267 3.0 9.0 0.00 0.00 0.00 60 1013.6
20260902193932 93 256 4.0 9.0 0.00 0.00 0.00 59 1013.7
20260902193422 93 217 4.0 10.0 0.00 0.00 0.00 62 1013.8
20260902192931 93 254 3.0 10.0 0.00 0.00 0.00 62 1013.8
20260902192436 93 215 3.0 9.0 0.00 0.00 0.00 63 1013.9
20260902191942 93 197 4.0 7.0 0.00 0.00 0.00 62 1013.9
20260902191427 93 219 2.0 6.0 0.00 0.00 0.00 62 1014.0
20260902190935 93 226 3.0 7.0 0.00 0.00 0.00 61 1013.9
20260902190449 93 198 4.0 7.0 0.00 0.00 0.00 60 1014.0
20260902185919 93 211 3.0 7.0 0.00 0.00 0.00 62 1014.1
20260902185428 92 237 4.0 9.0 0.00 0.00 0.00 63 1014.1
20260902184915 92 243 5.0 9.0 0.00 0.00 0.00 62 1014.2
20260902184428 92 232 5.0 8.0 0.00 0.00 0.00 63 1014.0
20260902183914 92 204 3.0 8.0 0.00 0.00 0.00 61 1014.1
20260902183423 92 231 3.0 8.0 0.00 0.00 0.00 60 1014.1
20260902182914 92 232 2.0 9.0 0.00 0.00 0.00 63 1014.2
20260902182418 92 192 2.0 9.0 0.00 0.00 0.00 62 1014.2
20260902181924 92 227 3.0 9.0 0.00 0.00 0.00 62 1014.3
20260902181418 92 200 5.0 9.0 0.00 0.00 0.00 61 1014.3
20260902180926 91 192 3.0 8.0 0.00 0.00 0.00 63 1014.3
20260902180413 91 225 4.0 8.0 0.00 0.00 0.00 64 1014.4
20260902175924 91 219 3.0 8.0 0.00 0.00 0.00 64 1014.3
20260902175431 91 251 3.0 7.0 0.00 0.00 0.00 61 1014.4
20260902174940 91 203 4.0 7.0 0.00 0.00 0.00 64 1014.4
20260902174431 90 253 3.0 7.0 0.00 0.00 0.00 65 1014.4
20260902173936 90 201 2.0 7.0 0.00 0.00 0.00 64 1014.3
20260902173450 90 206 4.0 8.0 0.00 0.00 0.00 63 1014.4
20260902172932 90 218 3.0 8.0 0.00 0.00 0.00 65 1014.4
20260902172418 90 220 3.0 8.0 0.00 0.00 0.00 66 1014.4
20260902171927 90 196 2.0 7.0 0.00 0.00 0.00 66 1014.4
20260902171421 89 207 4.0 7.0 0.00 0.00 0.00 65 1014.4
20260902170928 89 228 4.0 6.0 0.00 0.00 0.00 66 1014.5
20260902170433 89 211 2.0 7.0 0.00 0.00 0.00 67 1014.5
20260902165922 89 211 4.0 7.0 0.00 0.00 0.00 66 1014.5
20260902165429 89 241 4.0 6.0 0.00 0.00 0.00 65 1014.7
20260902164918 89 219 2.0 5.0 0.00 0.00 0.00 69 1014.7
20260902164431 89 242 2.0 9.0 0.00 0.00 0.00 67 1014.8
20260902163919 88 205 4.0 9.0 0.00 0.00 0.00 66 1014.7
20260902163425 88 197 4.0 6.0 0.00 0.00 0.00 66 1014.8
20260902162952 88 266 2.0 5.0 0.00 0.00 0.00 66 1014.8
20260902162441 88 234 1.0 5.0 0.00 0.00 0.00 67 1014.9
20260902161928 88 217 2.0 5.0 0.00 0.00 0.00 68 1014.9
20260902161448 87 263 2.0 5.0 0.00 0.00 0.00 68 1014.8
20260902160914 87 212 3.0 6.0 0.00 0.00 0.00 70 1014.9
20260902160421 87 213 2.0 4.0 0.00 0.00 0.00 72 1015.0
20260902155934 87 269 2.0 5.0 0.00 0.00 0.00 73 1015.1
20260902155420 86 217 2.0 7.0 0.00 0.00 0.00 73 1015.1
20260902154927 86 210 3.0 7.0 0.00 0.00 0.00 73 1015.0
20260902154438 86 207 2.0 5.0 0.00 0.00 0.00 72 1015.1
20260902153924 85 205 3.0 5.0 0.00 0.00 0.00 74 1015.0
20260902153428 85 190 2.0 4.0 0.00 0.00 0.00 73 1014.9
20260902152920 85 246 1.0 6.0 0.00 0.00 0.00 75 1015.2
20260902152430 85 278 1.0 6.0 0.00 0.00 0.00 74 1015.1
20260902151917 85 213 2.0 6.0 0.00 0.00 0.00 73 1015.0
20260902151430 84 290 0.0 5.0 0.00 0.00 0.00 75 1015.0
20260902150917 84 229 2.0 5.0 0.00 0.00 0.00 74 1014.9
20260902150425 84 233 2.0 5.0 0.00 0.00 0.00 74 1014.9
20260902145913 84 194 3.0 6.0 0.00 0.00 0.00 74 1014.9
20260902145450 84 223 2.0 6.0 0.00 0.00 0.00 74 1015.0
20260902144913 84 236 3.0 6.0 0.00 0.00 0.00 74 1015.0
20260902144443 83 194 2.0 6.0 0.00 0.00 0.00 75 1015.0
20260902143930 83 205 4.0 6.0 0.00 0.00 0.00 75 1014.9
20260902143417 83 211 2.0 5.0 0.00 0.00 0.00 76 1014.9
20260902142923 82 196 2.0 6.0 0.00 0.00 0.00 76 1014.9
20260902142432 82 176 3.0 6.0 0.00 0.00 0.00 77 1014.8
20260902141917 82 201 3.0 4.0 0.00 0.00 0.00 77 1014.8
20260902141447 82 202 2.0 4.0 0.00 0.00 0.00 77 1014.8
20260902140914 82 200 2.0 6.0 0.00 0.00 0.00 77 1015.0
20260902140451 82 202 3.0 6.0 0.00 0.00 0.00 77 1015.0
20260902135918 81 210 3.0 6.0 0.00 0.00 0.00 77 1015.0
20260902135423 81 185 2.0 6.0 0.00 0.00 0.00 78 1015.0
20260902134933 81 169 3.0 6.0 0.00 0.00 0.00 78 1015.0
20260902134458 80 216 1.0 4.0 0.00 0.00 0.00 80 1015.1
20260902133923 80 221 2.0 6.0 0.00 0.00 0.00 80 1015.1
20260902133431 80 205 3.0 6.0 0.00 0.00 0.00 80 1015.0
20260902132922 79 196 1.0 4.0 0.00 0.00 0.00 81 1015.1
20260902132500 79 196 1.0 4.0 0.00 0.00 0.00 82 1015.1
20260902131949 78 201 1.0 5.0 0.00 0.00 0.00 82 1015.2
20260902131439 78 200 2.0 5.0 0.00 0.00 0.00 82 1015.4
20260902130948 78 205 1.0 5.0 0.00 0.00 0.00 83 1015.4
20260902130414 78 190 1.0 4.0 0.00 0.00 0.00 83 1015.3
20260902125924 77 192 1.0 4.0 0.00 0.00 0.00 83 1015.2
20260902125415 77 192 2.0 4.0 0.00 0.00 0.00 83 1015.3
20260902124920 77 192 1.0 4.0 0.00 0.00 0.00 84 1015.2
20260902124430 77 193 2.0 4.0 0.00 0.00 0.00 84 1015.2
20260902123917 77 191 1.0 3.0 0.00 0.00 0.00 84 1015.1
20260902123424 76 190 1.0 3.0 0.00 0.00 0.00 84 1015.1
20260902122917 76 187 1.0 2.0 0.00 0.00 0.00 84 1015.2
20260902122426 76 187 1.0 2.0 0.00 0.00 0.00 84 1015.2
20260902121914 76 187 0.0 2.0 0.00 0.00 0.00 84 1015.1
20260902121428 76 187 0.0 3.0 0.00 0.00 0.00 84 1015.2
20260902120916 76 184 0.0 2.0 0.00 0.00 0.00 84 1015.1
20260902120423 76 184 0.0 2.0 0.00 0.00 0.00 84 1015.2
20260902115916 76 184 1.0 2.0 0.00 0.00 0.00 84 1015.1
20260902115432 76 184 1.0 4.0 0.00 0.00 0.00 84 1015.1
20260902114920 76 189 2.0 4.0 0.00 0.00 0.00 84 1015.0
20260902114427 76 192 1.0 3.0 0.00 0.00 0.00 84 1015.0
20260902113916 76 200 2.0 3.0 0.00 0.00 0.00 83 1015.0
20260902113423 76 200 1.0 3.0 0.00 0.00 0.00 83 1015.0
20260902112931 76 200 1.0 5.0 0.00 0.00 0.00 83 1015.0
20260902112439 77 198 2.0 5.0 0.00 0.00 0.00 83 1015.0
20260902111927 77 200 3.0 5.0 0.00 0.00 0.00 83 1015.1
20260902111421 77 196 2.0 5.0 0.00 0.00 0.00 82 1015.1
20260902110928 77 215 1.0 3.0 0.00 0.00 0.00 82 1015.1
20260902110416 77 180 0.0 2.0 0.00 0.00 0.00 82 1015.1
20260902105947 77 180 0.0 2.0 0.00 0.00 0.00 82 1015.2
20260902105413 77 181 0.0 3.0 0.00 0.00 0.00 82 1015.1
20260902104951 77 180 1.0 3.0 0.00 0.00 0.00 82 1015.1
20260902104414 77 180 2.0 2.0 0.00 0.00 0.00 81 1015.0
20260902103921 77 209 1.0 2.0 0.00 0.00 0.00 81 1015.0
20260902103430 77 209 0.0 1.0 0.00 0.00 0.00 81 1014.9
20260902102921 78 209 0.0 5.0 0.00 0.00 0.00 81 1014.9
20260902102431 78 209 1.0 5.0 0.00 0.00 0.00 81 1015.0
20260902101922 78 198 2.0 4.0 0.00 0.00 0.00 81 1014.9
20260902101414 78 187 1.0 3.0 0.00 0.00 0.00 81 1015.0
20260902100922 78 186 2.0 3.0 0.00 0.00 0.00 81 1015.0
20260902100431 78 185 1.0 4.0 0.00 0.00 0.00 81 1014.9
20260902095924 78 192 3.0 4.0 0.00 0.00 0.00 81 1014.9
20260902095431 78 195 1.0 3.0 0.00 0.00 0.00 82 1015.0
20260902094917 78 193 2.0 3.0 0.00 0.00 0.00 82 1015.0
20260902094429 78 193 0.0 3.0 0.00 0.00 0.00 81 1015.0
20260902093920 78 196 1.0 3.0 0.00 0.00 0.00 81 1014.9
20260902093428 78 196 0.0 3.0 0.00 0.00 0.00 81 1014.9
20260902092915 78 193 1.0 3.0 0.00 0.00 0.00 81 1014.9
20260902092424 78 194 1.0 3.0 0.00 0.00 0.00 81 1014.9
20260902091931 78 194 1.0 3.0 0.00 0.00 0.00 81 1014.9
20260902091423 78 194 0.0 1.0 0.00 0.00 0.00 81 1014.8
20260902090914 78 194 0.0 3.0 0.00 0.00 0.00 81 1014.8
20260902090424 79 194 0.0 3.0 0.00 0.00 0.00 81 1014.7
20260902085933 78 193 2.0 4.0 0.00 0.00 0.00 81 1014.6
20260902085439 78 198 2.0 4.0 0.00 0.00 0.00 81 1014.7
20260902084927 78 198 1.0 3.0 0.00 0.00 0.00 81 1014.7
20260902084419 78 198 1.0 4.0 0.00 0.00 0.00 82 1014.7
20260902083926 78 198 2.0 4.0 0.00 0.00 0.00 82 1014.7
20260902083431 78 198 2.0 4.0 0.00 0.00 0.00 82 1014.6
20260902082918 78 194 2.0 3.0 0.00 0.00 0.00 83 1014.7
20260902082455 78 194 2.0 3.0 0.00 0.00 0.00 83 1014.6
20260902081923 78 194 0.0 2.0 0.00 0.00 0.00 84 1014.7
20260902081452 78 194 0.0 1.0 0.00 0.00 0.00 84 1014.7
20260902080917 78 194 0.0 0.0 0.00 0.00 0.00 84 1014.6
20260902080427 78 194 0.0 0.0 0.00 0.00 0.00 83 1014.6
20260902075938 78 195 0.0 0.0 0.00 0.00 0.00 83 1014.7
20260902075448 78 195 0.0 0.0 0.00 0.00 0.00 83 1014.6
20260902074933 78 195 0.0 2.0 0.00 0.00 0.00 83 1014.6
20260902074443 78 195 1.0 2.0 0.00 0.00 0.00 83 1014.6
20260902073954 78 195 0.0 0.0 0.00 0.00 0.00 83 1014.7
20260902073421 78 195 0.0 0.0 0.00 0.00 0.00 83 1014.6
20260902072931 79 195 0.0 0.0 0.00 0.00 0.00 83 1014.4
20260902072438 79 195 0.0 0.0 0.00 0.00 0.00 82 1014.4
20260902071926 79 195 0.0 0.0 0.00 0.00 0.00 82 1014.3
20260902071417 79 195 0.0 0.0 0.00 0.00 0.00 82 1014.4
20260902070926 79 195 0.0 0.0 0.00 0.00 0.00 82 1014.5
20260902070416 79 195 0.0 1.0 0.00 0.00 0.00 82 1014.4
20260902065929 79 195 0.0 2.0 0.00 0.00 0.00 82 1014.5
20260902065435 79 195 1.0 2.0 0.00 0.00 0.00 82 1014.5
20260902064921 79 195 1.0 3.0 0.00 0.00 0.00 82 1014.6
20260902064428 79 195 1.0 3.0 0.00 0.00 0.00 82 1014.6
20260902063939 79 195 1.0 3.0 0.00 0.00 0.00 82 1014.6
20260902063427 79 195 1.0 3.0 0.00 0.00 0.00 82 1014.6
20260902062954 79 195 1.0 3.0 0.00 0.00 0.00 83 1014.6
20260902062417 79 195 1.0 3.0 0.00 0.00 0.00 83 1014.6
20260902061927 79 195 1.0 2.0 0.00 0.00 0.00 83 1014.6
20260902061416 79 195 0.0 2.0 0.00 0.00 0.00 83 1014.6
20260902060952 79 195 1.0 3.0 0.00 0.00 0.00 83 1014.5
20260902060416 79 42 1.0 3.0 0.00 0.00 0.00 83 1014.5
20260902055926 79 42 1.0 4.0 0.00 0.00 0.00 83 1014.5
20260902055415 79 42 2.0 4.0 0.00 0.00 0.00 83 1014.5
20260902054926 79 45 2.0 4.0 0.00 0.00 0.00 83 1014.5
20260902054417 79 46 2.0 3.0 0.00 0.00 0.00 83 1014.5
20260902053925 79 45 1.0 3.0 0.00 0.00 0.00 83 1014.5
20260902053436 79 48 1.0 3.0 0.00 0.00 0.00 83 1014.6
20260902052953 79 360 2.0 3.0 0.00 0.00 0.00 83 1014.5
20260902052439 79 51 0.0 0.0 0.00 0.00 0.00 83 1014.6
20260902051926 79 51 0.0 2.0 0.00 0.00 0.00 83 1014.6
20260902051417 80 360 0.0 2.0 0.00 0.00 0.00 83 1014.6
20260902050927 80 360 1.0 2.0 0.00 0.00 0.00 83 1014.6
20260902050433 80 360 0.0 2.0 0.00 0.00 0.00 82 1014.6
20260902045929 80 360 0.0 2.0 0.00 0.00 0.00 82 1014.6
20260902045438 80 360 0.0 2.0 0.00 0.00 0.00 82 1014.6
20260902044925 80 360 0.0 2.0 0.00 0.00 0.00 82 1014.6
20260902044434 80 360 0.0 2.0 0.00 0.00 0.00 82 1014.6
20260902043941 81 360 0.0 3.0 0.00 0.00 0.00 81 1014.6
20260902043430 81 360 1.0 3.0 0.00 0.00 0.00 81 1014.6
20260902042942 81 360 1.0 3.0 0.00 0.00 0.00 81 1014.6
20260902042431 81 360 2.0 4.0 0.00 0.00 0.00 81 1014.6
20260902041919 81 360 2.0 4.0 0.00 0.00 0.00 80 1014.7
20260902041429 81 360 2.0 3.0 0.00 0.00 0.00 80 1014.8
20260902040916 81 360 2.0 3.0 0.00 0.00 0.00 80 1014.7
20260902040423 81 360 2.0 3.0 0.00 0.00 0.00 80 1014.7
20260902035932 81 360 2.0 3.0 0.00 0.00 0.00 80 1014.6
20260902035418 82 174 1.0 3.0 0.00 0.00 0.00 79 1014.8
20260902034926 82 194 2.0 3.0 0.00 0.00 0.00 79 1014.8
20260902034418 82 197 1.0 3.0 0.00 0.00 0.00 78 1014.8
20260902033955 82 198 1.0 2.0 0.00 0.00 0.00 78 1014.8
20260902033445 82 198 1.0 3.0 0.00 0.00 0.00 78 1014.8
20260902032931 83 200 2.0 3.0 0.00 0.00 0.00 77 1014.8
20260902032421 83 200 1.0 4.0 0.00 0.00 0.00 77 1014.7
20260902031929 83 194 2.0 4.0 0.00 0.00 0.00 77 1014.8
20260902031423 83 194 2.0 4.0 0.00 0.00 0.00 76 1014.8
20260902030930 83 195 2.0 5.0 0.00 0.00 0.00 76 1014.9
20260902030417 83 199 3.0 6.0 0.00 0.00 0.00 76 1014.9
20260902025924 84 196 2.0 6.0 0.00 0.00 0.00 76 1014.8
20260902025434 84 189 2.0 4.0 0.00 0.00 0.00 76 1014.8
20260902024923 84 194 2.0 3.0 0.00 0.00 0.00 75 1014.8
20260902024430 84 202 1.0 3.0 0.00 0.00 0.00 75 1014.8
20260902023917 84 202 1.0 3.0 0.00 0.00 0.00 75 1014.8
20260902023420 84 190 2.0 3.0 0.00 0.00 0.00 75 1014.7
20260902022929 84 193 1.0 3.0 0.00 0.00 0.00 75 1014.6
20260902022417 84 196 1.0 3.0 0.00 0.00 0.00 75 1014.7
20260902021924 84 196 1.0 4.0 0.00 0.00 0.00 74 1014.7
20260902021434 85 196 1.0 4.0 0.00 0.00 0.00 74 1014.7
20260902020921 85 205 0.0 2.0 0.00 0.00 0.00 74 1014.6
20260902020431 85 205 0.0 4.0 0.00 0.00 0.00 74 1014.6
20260902015918 85 205 1.0 4.0 0.00 0.00 0.00 74 1014.6
20260902015427 85 205 1.0 3.0 0.00 0.00 0.00 73 1014.5
20260902014916 85 205 2.0 4.0 0.00 0.00 0.00 73 1014.4
20260902014426 85 205 1.0 4.0 0.00 0.00 0.00 73 1014.4
20260902013933 85 204 1.0 4.0 0.00 0.00 0.00 73 1014.3
20260902013421 85 142 2.0 4.0 0.00 0.00 0.00 73 1014.3
20260902012950 85 142 1.0 3.0 0.00 0.00 0.00 73 1014.2
20260902012419 86 137 1.0 3.0 0.00 0.00 0.00 73 1014.2
20260902011930 86 138 2.0 3.0 0.00 0.00 0.00 73 1014.1
20260902011424 86 138 2.0 3.0 0.00 0.00 0.00 72 1014.0
20260902010932 86 136 2.0 3.0 0.00 0.00 0.00 72 1014.0
20260902010421 86 134 2.0 4.0 0.00 0.00 0.00 72 1013.9
20260902005929 86 132 2.0 4.0 0.00 0.00 0.00 71 1013.9
20260902005418 87 144 2.0 5.0 0.00 0.00 0.00 71 1013.8
20260902004926 87 144 2.0 5.0 0.00 0.00 0.00 71 1013.7
20260902004417 87 144 2.0 5.0 0.00 0.00 0.00 70 1013.7
20260902003924 87 146 3.0 5.0 0.00 0.00 0.00 70 1013.8
20260902003432 88 144 2.0 4.0 0.00 0.00 0.00 70 1013.7
20260902002925 88 144 2.0 4.0 0.00 0.00 0.00 70 1013.8
20260902002433 88 143 2.0 4.0 0.00 0.00 0.00 69 1013.8
20260902001919 88 199 2.0 4.0 0.00 0.00 0.00 69 1013.9
20260902001433 89 199 3.0 4.0 0.00 0.00 0.00 69 1013.9
20260902000922 89 211 2.0 4.0 0.00 0.00 0.00 69 1013.9
20260902000431 89 196 2.0 4.0 0.00 0.00 0.00 69 1014.0
20260901235924 89 190 2.0 4.0 0.00 0.00 0.00 69 1013.9
20260901235431 89 211 2.0 5.0 0.00 0.00 0.00 69 1014.0
20260901234921 89 175 2.0 6.0 0.00 0.00 0.00 69 1013.9
20260901234429 90 214 2.0 4.0 0.00 0.00 0.00 69 1014.1
20260901233939 90 207 2.0 4.0 0.00 0.00 0.00 69 1014.0
20260901233426 90 211 3.0 8.0 0.00 0.00 0.00 69 1014.0
20260901232935 90 204 2.0 8.0 0.00 0.00 0.00 69 1014.0
20260901232440 90 209 2.0 5.0 0.00 0.00 0.00 70 1014.1
20260901231949 91 219 3.0 5.0 0.00 0.00 0.00 69 1014.1
20260901231420 91 205 3.0 5.0 0.00 0.00 0.00 69 1014.0
20260901230928 91 198 2.0 4.0 0.00 0.00 0.00 69 1014.1
20260901230415 91 198 2.0 4.0 0.00 0.00 0.00 70 1014.1
20260901225925 91 220 2.0 4.0 0.00 0.00 0.00 69 1014.1
20260901225415 91 194 1.0 3.0 0.00 0.00 0.00 70 1014.1
20260901224921 91 194 2.0 6.0 0.00 0.00 0.00 70 1014.2
20260901224431 91 221 3.0 6.0 0.00 0.00 0.00 70 1014.2
20260901223916 91 210 3.0 6.0 0.00 0.00 0.00 70 1014.1
20260901223422 91 218 2.0 4.0 0.00 0.00 0.00 69 1014.2
20260901222934 91 192 2.0 4.0 0.00 0.00 0.00 69 1014.3
20260901222423 91 214 2.0 6.0 0.00 0.00 0.00 69 1014.2
20260901221930 91 219 2.0 6.0 0.00 0.00 0.00 68 1014.1
20260901221423 91 217 2.0 6.0 0.00 0.00 0.00 69 1014.3
20260901220931 91 217 2.0 6.0 0.00 0.00 0.00 69 1014.2
20260901220418 91 201 2.0 6.0 0.00 0.00 0.00 69 1014.2
20260901215931 92 231 2.0 7.0 0.00 0.00 0.00 69 1014.2
20260901215420 92 217 3.0 7.0 0.00 0.00 0.00 70 1014.2